Epoch 2003 Jan. 1.0 TT = JDT 2452640.5
T 2002 Dec. 24.39408 TT Muraoka
q 1.8775046 (2000.0) P Q
n 0.13459444 Peri. 13.28412 -0.68053448 -0.72235616
a 3.7709546 Node 119.75829 +0.65866559 -0.67651466
e 0.5021142 Incl. 8.13051 +0.32098671 -0.14328116
P 7.32
From 183 observations 1957-1996, mean residual 0".90.
Nongravitational
parameters A1 = +0.25 +/- 0.02, A2 = -0.0154 +/- 0.0003.
Finding Charts
Magnitudes Graph
m1 = 11.0 + 5 log d + 12.0 log r [ , 0] ( - 2002 Dec. 24)
m1 = 25.2 + 5 log d - 40 log r [ 0, 70] (2002 Dec. 24 - 2003 Mar. 4)
m1 = 1.5 + 5 log d + 40 log r [ 70,130] (2003 Mar. 4 - 2003 May 3)
m1 = 11.0 + 5 log d + 12.0 log r [130, ] (2003 May 3 - )
* Gray curve is: m1 = 11.0 + 5 log d + 12.0 log r
The orbital elements are calculated by Kenji Muraoka.
The charts are made with StellaNavigator Ver.2.0 for Windows
(AstroArts / ASCII).
The magnitudes graphs are made with Comet for Windows.
Copyright(C) Seiichi Yoshida (comet@aerith.net). All rights reserved.